Regional Weather Roundup
Issued by NWS

Home | Current Version | Previous Version | Graphics & Text | Print | Product List | Glossary On
Versions: 1 2 3 4 5 6 7 8 9 10 11 12 13 14 15 16 17 18 19 20 21 22 23 24 25 26 27 28 29 30 31 32 33 34 35 36 37 38 39 40 41 42 43 44 45 46 47 48 49 50
000
ASUS45 KBOI 212210
RWRID
WEATHER ROUNDUP FOR IDAHO
NATIONAL WEATHER SERVICE BOISE ID
400 PM MDT THU AUG 21 2014

NOTE: "FAIR" INDICATES FEW OR NO CLOUDS BELOW 12000 FEET
WITH NO SIGNIFICANT WEATHER AND/OR OBSTRUCTIONS TO VISIBILITY

IDZ012-014-212300-
SOUTHWEST IDAHO


CITY           SKY/WX    TMP DP  RH WIND       PRES   REMARKS
BOISE          MOSUNNY   81  40  23 N10       29.93F
CALDWELL       MOSUNNY   81  41  24 CALM      29.94F
MOUNTAIN HOME  PTSUNNY   84  46  26 VRB6      29.91F
$$

IDZ016-017-212300-
SOUTHCENTRAL IDAHO


CITY           SKY/WX    TMP DP  RH WIND       PRES   REMARKS
BURLEY         MOSUNNY   77  53  43 SW8       30.00F
JEROME         SUNNY     78  51  38 VRB3      29.99F
TWIN FALLS     TSTM      73  62  68 E8        30.00F
$$

IDZ019>023-212300-
SOUTHEAST IDAHO


CITY           SKY/WX    TMP DP  RH WIND       PRES   REMARKS
IDAHO FALLS    PTSUNNY   73  50  44 S9        30.05F
POCATELLO      MOSUNNY   76  50  40 SW12G17   30.04F
REXBURG        MOSUNNY   70  50  49 SW7       30.07F
$$

IDZ006-010-011-018-031-032-212300-
CENTRAL IDAHO MOUNTAINS


CITY           SKY/WX    TMP DP  RH WIND       PRES   REMARKS
MCCALL         PTSUNNY   72  39  30 S13G21    30.03F
HAILEY         MOSUNNY   72  54  53 SE13G25   30.06F
STANLEY          N/A     69  35  28 CALM      30.09F
SALMON         PTSUNNY   70  54  56 N5        29.96F
CHALLIS        PTSUNNY   72  49  44 S14G21    30.00F
$$

IDZ002-004-006-007-026-212300-
NORTHERN IDAHO


CITY           SKY/WX    TMP DP  RH WIND       PRES   REMARKS
LEWISTON       MOSUNNY   86  44  23 NW6       29.87F
LOWELL           N/A     88  48  25 N3        29.84F
COEUR D`ALENE  PTSUNNY   79  50  36 CALM      29.92F
MULLAN PASS    CLOUDY    58  52  80 VRB3      30.11S
$$


USA.gov is the U.S. government's official web portal to all federal, state and local government web resources and services.